Hourly Data Report for October 27, 2016

All times are specified in Local Standard Time (LST). Add 1 hour to adjust for Daylight Saving Time where and when it is observed.

GRISE FIORD CLIMATE
NUNAVUT

76°25'22.040" N
82°54'08.020" W
44.50 m
2402351
71971
NGC

Download Data

Hourly Data (October 2016)
Hourly Data Report for October 27, 2016
Temp Definition
°C
Dew Point Temp Definition
°C
Rel Hum Definition
%
Wind Dir Definition
10's deg

Wind Spd Definition
km/h
Visibility Definition
km
Stn Press Definition
kPa
Hmdx Definition


Wind Chill Definition


Weather Definition


TIME
00:00 -19.8 -22.7 77 5 3   100.95   -22 LegendNANA
01:00 -20.4 -24.3 71 12 12   100.99   -29 LegendNANA
02:00 -19.5 -23.0 73 9 2   101.04   -21 LegendNANA
03:00 -19.8 -23.5 72 14 1   101.09   -21 LegendNANA
04:00 -20.2 -24.1 71 13 3   101.12   -23 LegendNANA
05:00 -18.0 -21.8 72 13 11   101.13   -25 LegendNANA
06:00 -17.9 -21.9 71 13 5   101.16   -22 LegendNANA
07:00 -16.3 -20.1 73 13 9   101.21   -22 LegendNANA
08:00 -15.7 -19.8 70 10 4   101.26   -19 LegendNANA
09:00 -15.1 -18.2 77 13 4   101.29   -18 LegendNANA
10:00 -15.9 -18.7 79 12 5   101.32   -20 LegendNANA
11:00 -14.1 -16.4 83 10 8   101.33   -19 LegendNANA
12:00 -15.3 -17.9 80 6 4   101.36   -18 LegendNANA
13:00 -13.5 -16.2 80 5 2   101.39   -15 LegendNANA
14:00 -13.7 -15.8 84 8 4   101.45   -16 LegendNANA
15:00 -13.2 -15.6 82 3 3   101.50   -15 LegendNANA
16:00 -11.9 -13.9 85 13 5   101.52   -15 LegendNANA
17:00 -13.0 -15.1 84 2 4   101.57   -16 LegendNANA
18:00 -12.0 -14.7 80 9 3   101.57   -14 LegendNANA
19:00 -9.7 -13.0 77 14 4   101.62   -12 LegendNANA
20:00 -8.4 -13.0 69 11 14   101.64   -15 LegendNANA
21:00 -7.3 -13.6 61 9 17   101.63   -14 LegendNANA
22:00 -7.5 -13.9 60 14 9   101.63   -12 LegendNANA
23:00 -9.0 -14.0 67 13 4   101.67   -11 LegendNANA

Notes on Data Quality.

Legend

  • E = Estimated
  • M = Missing
  • NA = Not Available
  • ‡ = Partner data that is not subject to review by the National Climate Archives
Date modified: